[[{"header":{"parameterUnit":"m.s-1","parameterCategory":1,"la1":30.2991,"la2":30.254,"lo1":-89.0895,"lo2":-89.0444,"dy":0.0017,"dx":0.0017,"nx":28,"ny":28,"refTime":"2025-08-17T09:00:00:Z","depth":0,"parameterNumber":2,"parameterNumberName":"U-component_of_WINDS"},"data":[0,0,0,0,0,0,0,0,0,0,0,0,0,0,0,0,0,0,0,0,0,0,0,0,0,0,0,0,0,0,0,0,0,0,0,0,0,0,0,0,0,0,0,0,0,0,0,0,0,0,0,0,0,0,0,0,0,0,-3.3582,-3.3589,0,-3.4255,-3.4263,-3.4271,-3.4543,-3.4542,-3.454,-3.4538,-3.5235,-3.5254,-3.5274,0,0,0,0,0,0,0,0,0,0,0,0,0,-3.2539,-3.2557,-3.3581,-3.3589,-3.3598,-3.4254,-3.4263,-3.4273,-3.4544,-3.4542,-3.454,-3.4538,-3.5228,-3.5252,-3.5276,0,0,0,0,0,0,0,0,0,0,0,0,0,-3.308,-3.2562,-3.3579,-3.3812,-3.3839,-3.4252,-3.4264,-3.4275,-3.4544,-3.4541,-3.4539,-3.4537,-3.522,-3.5249,-3.5279,-3.5512,0,0,-3.5371,-3.5384,0,0,0,0,0,0,0,0,-3.3049,-3.3118,-3.3769,-3.3797,-3.3828,-3.4313,-3.4152,-3.469,-3.4545,-3.4277,-3.4538,-3.4536,-3.493,-3.4984,-3.5116,-3.5545,-3.5575,-3.5373,-3.5392,-3.5405,-3.5413,0,0,0,0,0,0,0,-3.3011,-3.3091,-3.3848,-3.3778,-3.3815,-3.3886,-3.396,-3.4255,-3.4609,-3.43,-3.4321,-3.4397,-3.4946,-3.5086,-3.5134,-3.5585,-3.5373,-3.5399,-3.5418,-3.543,-3.6247,-3.6251,0,0,0,0,0,0,-3.2934,-3.3057,-3.3827,-3.3868,-3.3424,-3.3907,-3.399,-3.416,-3.4606,-3.4672,-3.4398,-3.4407,-3.5036,-3.5099,-3.516,-3.5467,-3.5404,-3.5432,-3.545,-3.6244,-3.6248,-3.6252,0,0,0,0,0,0,-3.2911,-3.3,-3.3799,-3.3469,-3.3576,-3.3927,-3.4116,-3.4174,-3.4315,-3.4681,-3.4746,-3.4476,-3.5037,-3.5117,-3.5424,-3.5494,-3.5446,-3.5473,-3.6239,-3.6245,-3.625,-3.6078,0,0,0,0,0,0,-3.2879,-3.299,-3.3079,-3.3469,-3.3593,-3.4048,-3.412,-3.4189,-3.4365,-3.4383,-3.4771,-3.4833,-3.5041,-3.5378,-3.5454,-3.5535,-3.5497,-3.6235,-3.6242,-3.6248,-3.6079,-3.6077,-3.6076,0,0,0,0,0,-3.2841,-3.3004,-3.3082,-3.3173,-3.3711,-3.4052,-3.4123,-3.4357,-3.4369,-3.4465,-3.4701,-3.4821,-3.5474,-3.5407,-3.5495,-3.5586,-3.6231,-3.624,-3.6248,-3.608,-3.6078,-3.6076,0,0,0,0,0,0,-3.2614,-3.3059,-3.3151,-3.3444,-3.3708,-3.4097,-3.4223,-3.4347,-3.4614,-3.462,-3.4902,-3.4988,-3.5271,-3.546,-3.5377,-3.5839,-3.5862,-3.5888,-3.5705,-3.5706,-3.5704,-3.5653,-3.5522,0,0,0,0,0,-3.2598,-3.2834,-3.3212,-3.3434,-3.3562,-3.3869,-3.4026,-3.4184,-3.447,-3.4584,-3.4842,-3.5117,-3.5386,-3.5556,-3.5823,-3.6109,-3.62,-3.6215,-3.6213,-3.621,-3.623,-3.64,-3.6413,-3.628,-3.6279,-3.6279,0,0,-3.2567,-3.284,-3.2972,-3.3395,-3.3619,-3.3861,-3.3961,-3.4212,-3.4396,-3.4623,-3.4928,-3.5128,-3.5454,-3.5752,-3.5896,-3.5918,-3.6287,-3.6221,-3.6215,-3.6238,-3.641,-3.6422,-3.6433,-3.6285,-3.6284,-3.6283,0,0,-3.2636,-3.2863,-3.3076,-3.3298,-3.3635,-3.3839,-3.389,-3.4263,-3.4404,-3.4715,-3.4891,-3.5116,-3.557,-3.5797,-3.5972,-3.6131,-3.6253,-3.6211,-3.6201,-3.6364,-3.6375,-3.6385,-3.6446,-3.6464,-3.6229,-3.6229,-3.6228,0,-3.2555,-3.2924,-3.317,-3.3413,-3.3596,-3.3812,-3.4033,-3.4237,-3.4644,-3.4767,-3.4786,-3.5365,-3.5599,-3.5955,-3.5995,-3.6128,-3.6198,-3.6167,-3.6353,-3.6366,-3.638,-3.6441,-3.6462,-3.6221,-3.6222,-3.6223,-3.6224,0,-3.2811,-3.3065,-3.3197,-3.3584,-3.3783,-3.4012,-3.4297,-3.4469,-3.4611,-3.4814,-3.5132,-3.5421,-3.5753,-3.5849,-3.599,-3.6228,-3.6232,-3.6297,-3.6327,-3.6381,-3.6443,-3.6468,-3.6211,-3.6214,-3.6216,-3.6218,0,0,-3.2753,-3.3275,-3.3319,-3.35,-3.3889,-3.4093,-3.4335,-3.4658,-3.4802,-3.5077,-3.529,-3.5673,-3.5738,-3.5936,-3.6106,-3.6248,-3.6361,-3.6299,-3.6311,-3.6302,-3.6646,-3.6594,-3.6617,-3.6444,-3.645,-3.6454,-3.662,0,-3.2875,-3.3314,-3.3545,-3.3888,-3.4129,-3.434,-3.4553,-3.4817,-3.5015,-3.5251,-3.5472,-3.5739,-3.5803,-3.5925,-3.6075,-3.6314,-3.6434,-3.6306,-3.6649,-3.6658,-3.6561,-3.6649,-3.6595,-3.6736,-3.6645,-3.6649,-3.6652,0,-3.3075,-3.3346,-3.3712,-3.4079,-3.4189,-3.4374,-3.4693,-3.4914,-3.5221,-3.5356,-3.5578,-3.5746,-3.6015,-3.6024,-3.64,-3.6308,-3.6463,-3.6602,-3.6614,-3.6656,-3.6658,-3.6695,-3.6787,-3.6808,-3.6693,-3.6689,-3.6686,0,-3.2998,-3.3456,-3.3736,-3.3883,-3.4317,-3.4444,-3.4631,-3.4935,-3.5116,-3.5395,-3.5517,-3.5823,-3.5991,-3.6227,-3.6475,-3.6458,-3.6829,-3.6857,-3.6951,-3.6945,-3.7019,-3.7011,-3.7138,-3.7116,-3.7115,-3.7115,-3.7114,0,-3.3111,-3.3327,-3.3708,-3.3879,-3.4131,-3.4396,-3.4639,-3.4843,-3.5113,-3.5332,-3.5535,-3.5736,-3.6051,-3.6294,-3.649,-3.6774,-3.6849,-3.6968,-3.7017,-3.6951,-3.6935,-3.7056,-3.7053,-3.7121,-3.712,-3.7118,-3.7117,0,-3.3066,-3.3329,-3.3649,-3.4034,-3.4137,-3.4305,-3.4637,-3.4815,-3.5024,-3.53,-3.538,-3.571,-3.6007,-3.6278,-3.6672,-3.6805,-3.7094,-3.7156,-3.6989,-3.7016,-3.7096,-3.7085,-3.7306,-3.735,-3.7293,-3.7293,-3.7294,0,-3.3121,-3.3293,-3.3697,-3.3857,-3.404,-3.4295,-3.4482,-3.4752,-3.4939,-3.5304,-3.5439,-3.575,-3.6013,-3.6478,-3.6756,-3.706,-3.7133,-3.719,-3.718,-3.7108,-3.7137,-3.7124,-3.7144,-3.7185,-3.7185,-3.7184,-3.7184,0,-3.3191,-3.3314,-3.3573,-3.3879,-3.4096,-3.435,-3.4612,-3.4733,-3.5054,-3.5254,-3.5559,-3.5763,-3.6168,-3.6476,-3.6812,-3.701,-3.7152,-3.7185,-3.7224,-3.7157,-3.7054,-3.7113,-3.6982,-3.7178,-3.7179,-3.7179,-3.718,-3.718,-3.3201,-3.3365,-3.3676,-3.3959,-3.4185,-3.4425,-3.4612,-3.4846,-3.5105,-3.5453,-3.5599,-3.5909,-3.6219,-3.6685,-3.6882,-3.7132,-3.7161,-3.7215,-3.723,-3.7239,-3.7228,-3.7013,-3.7195,-3.7195,-3.7196,-3.7196,-3.7197,0,-3.3284,-3.3495,-3.3753,-3.4112,-3.4337,-3.4449,-3.4747,-3.4928,-3.5198,-3.5473,-3.5728,-3.6082,-3.6383,-3.6685,-3.7004,-3.7147,-3.722,-3.7222,-3.7214,-3.7259,-3.7182,-3.7118,-3.7157,-3.7157,-3.7157,-3.7157,-3.7157,-3.7157,-3.3353,-3.3638,-3.3797,-3.4198,-3.4411,-3.4714,-3.4875,-3.51,-3.5322,-3.5706,-3.5957,-3.6152,-3.6441,-3.6783,-3.7066,-3.7148,-3.7257,-3.724,-3.7339,-3.7263,-3.7263,-3.7264,-3.7205,-3.7261,-3.7261,-3.7396,-3.7397,-3.7398]},{"header":{"parameterUnit":"m.s-1","parameterCategory":1,"la1":30.2991,"la2":30.254,"lo1":-89.0895,"lo2":-89.0444,"dy":0.0017,"dx":0.0017,"nx":28,"ny":28,"refTime":"2025-08-17T09:00:00:Z","depth":0,"parameterNumber":3,"parameterNumberName":"V-component_of_WINDS"},"data":[0,0,0,0,0,0,0,0,0,0,0,0,0,0,0,0,0,0,0,0,0,0,0,0,0,0,0,0,0,0,0,0,0,0,0,0,0,0,0,0,0,0,0,0,0,0,0,0,0,0,0,0,0,0,0,0,0,0,4.0381,4.0382,0,4.0474,4.0475,4.0476,4.0515,4.0515,4.0515,4.0515,4.0606,4.0608,4.0611,0,0,0,0,0,0,0,0,0,0,0,0,0,4.0228,4.0231,4.0381,4.0382,4.0383,4.0473,4.0475,4.0476,4.0515,4.0515,4.0515,4.0515,4.0605,4.0608,4.0611,0,0,0,0,0,0,0,0,0,0,0,0,0,4.0305,4.0231,4.038,4.0414,4.0418,4.0473,4.0475,4.0476,4.0515,4.0515,4.0515,4.0515,4.0604,4.0608,4.0611,4.064,0,0,4.0623,4.0625,0,0,0,0,0,0,0,0,4.03,4.031,4.0408,4.0411,4.0416,4.0483,4.0454,4.0531,4.0515,4.0478,4.0515,4.0515,4.0565,4.0572,4.059,4.0644,4.0648,4.0623,4.0626,4.0627,4.0629,0,0,0,0,0,0,0,4.0295,4.0307,4.0417,4.0409,4.0414,4.0421,4.0431,4.0469,4.0521,4.0481,4.0484,4.0495,4.0567,4.0586,4.0592,4.0649,4.0623,4.0627,4.0629,4.0631,4.0724,4.0724,0,0,0,0,0,0,4.0285,4.0302,4.0414,4.042,4.0357,4.0424,4.0436,4.0461,4.0521,4.053,4.0495,4.0497,4.0579,4.0587,4.0595,4.0628,4.0627,4.0631,4.0633,4.0724,4.0724,4.0724,0,0,0,0,0,0,4.0282,4.0295,4.0411,4.0362,4.0377,4.0427,4.0455,4.0463,4.0483,4.0532,4.0541,4.0506,4.0579,4.059,4.0627,4.0632,4.0633,4.0636,4.0724,4.0724,4.0724,4.0697,0,0,0,0,0,0,4.0277,4.0294,4.0308,4.0362,4.038,4.0444,4.0456,4.0465,4.049,4.0492,4.0544,4.0552,4.058,4.0621,4.0631,4.0638,4.0639,4.0723,4.0724,4.0724,4.0698,4.0697,4.0695,0,0,0,0,0,4.0272,4.0297,4.0308,4.0322,4.0399,4.0444,4.0454,4.0487,4.049,4.0502,4.0532,4.055,4.063,4.0625,4.0636,4.0644,4.0723,4.0724,4.0724,4.0698,4.0697,4.0695,0,0,0,0,0,0,4.0243,4.0305,4.0318,4.0362,4.0397,4.0451,4.0468,4.0485,4.052,4.0521,4.0559,4.057,4.0602,4.0627,4.062,4.0671,4.0678,4.068,4.0654,4.0653,4.0652,4.0645,4.0642,0,0,0,0,0,4.0241,4.0275,4.0327,4.036,4.0377,4.0419,4.044,4.0462,4.05,4.0515,4.0548,4.0582,4.0614,4.0635,4.0668,4.0701,4.071,4.0711,4.071,4.0708,4.071,4.0724,4.0724,4.0726,4.0726,4.0726,0,0,4.0239,4.0277,4.0297,4.0355,4.0385,4.0416,4.0432,4.0466,4.0487,4.052,4.0556,4.0581,4.0621,4.0655,4.0671,4.0676,4.0711,4.0709,4.0708,4.071,4.0724,4.0724,4.0724,4.0726,4.0726,4.0726,0,0,4.025,4.0284,4.0313,4.0342,4.0386,4.0413,4.0419,4.0468,4.0486,4.0523,4.0546,4.0571,4.0627,4.0653,4.0674,4.0686,4.0702,4.0695,4.0689,4.0702,4.0702,4.0702,4.0703,4.0703,4.0697,4.0697,4.0697,0,4.0242,4.0292,4.0326,4.0356,4.0379,4.0408,4.0435,4.046,4.0513,4.0526,4.0531,4.0597,4.0627,4.0664,4.0666,4.0683,4.0689,4.069,4.0699,4.07,4.07,4.0701,4.0702,4.0696,4.0696,4.0696,4.0696,0,4.0276,4.0309,4.0327,4.0376,4.04,4.0429,4.0464,4.0484,4.0501,4.0526,4.056,4.0595,4.0633,4.0643,4.0662,4.0681,4.0682,4.0692,4.07,4.0698,4.07,4.0701,4.0694,4.0694,4.0695,4.0695,0,0,4.0277,4.0339,4.0345,4.0364,4.0412,4.0437,4.0463,4.05,4.0515,4.0548,4.0569,4.0612,4.062,4.0643,4.0663,4.0675,4.0677,4.0683,4.0684,4.0679,4.0696,4.0687,4.0688,4.0687,4.0688,4.0688,4.0692,0,4.0292,4.0344,4.0372,4.0411,4.0438,4.0463,4.0485,4.0515,4.0536,4.0561,4.0585,4.0613,4.0624,4.0637,4.0649,4.0674,4.0681,4.0675,4.0704,4.0705,4.0693,4.0689,4.0682,4.0684,4.0693,4.0693,4.0693,0,4.0319,4.035,4.0391,4.0429,4.0442,4.0463,4.0495,4.0519,4.0551,4.0565,4.0587,4.0607,4.0632,4.0636,4.0668,4.0663,4.0676,4.069,4.069,4.0694,4.0699,4.0691,4.0686,4.0686,4.0695,4.0695,4.0695,0,4.0311,4.0363,4.0392,4.0409,4.0456,4.0468,4.0488,4.0519,4.0537,4.0564,4.0576,4.0605,4.0621,4.0642,4.0667,4.0669,4.0695,4.0703,4.0706,4.0705,4.0711,4.071,4.0706,4.0721,4.0721,4.0721,4.0721,0,4.0325,4.0348,4.0388,4.0407,4.0431,4.0461,4.0483,4.0505,4.0531,4.0551,4.0573,4.0591,4.0624,4.0644,4.0663,4.0685,4.0692,4.0702,4.0707,4.07,4.0698,4.0709,4.0709,4.0721,4.0721,4.0721,4.0721,0,4.0321,4.0349,4.0382,4.0422,4.0432,4.0448,4.048,4.0497,4.0518,4.0542,4.0549,4.0582,4.0606,4.0633,4.0667,4.068,4.0699,4.0707,4.0689,4.0691,4.0691,4.069,4.0694,4.0694,4.0709,4.0709,4.0709,0,4.0328,4.0346,4.0386,4.04,4.0419,4.0444,4.0461,4.0488,4.0505,4.0538,4.0549,4.0576,4.0598,4.0636,4.0661,4.0686,4.0693,4.0692,4.0697,4.0687,4.069,4.0688,4.0688,4.0691,4.069,4.069,4.069,0,4.0336,4.0347,4.0372,4.04,4.042,4.0444,4.0468,4.0478,4.0509,4.0526,4.0552,4.0569,4.0601,4.0626,4.0652,4.0669,4.0683,4.0688,4.0689,4.0682,4.067,4.0674,4.0683,4.0688,4.0688,4.0688,4.0688,4.0689,4.0336,4.0351,4.0379,4.0405,4.0425,4.0445,4.0461,4.0482,4.0504,4.0533,4.0547,4.0571,4.0596,4.0633,4.0649,4.0666,4.0671,4.0674,4.0674,4.0674,4.0671,4.0667,4.0671,4.0671,4.0671,4.0671,4.0671,0,4.0342,4.0361,4.0384,4.0415,4.0433,4.0444,4.047,4.0484,4.0505,4.0527,4.0548,4.0574,4.0596,4.0621,4.0643,4.0652,4.0659,4.0657,4.0656,4.0659,4.0667,4.0662,4.0651,4.0651,4.0651,4.0651,4.0651,4.0651,4.0348,4.0372,4.0386,4.0418,4.0436,4.0459,4.0472,4.049,4.0507,4.0535,4.0553,4.0569,4.0591,4.0614,4.0634,4.064,4.0647,4.0642,4.065,4.0657,4.0659,4.0661,4.0657,4.0644,4.0644,4.0641,4.0641,4.0641]}]]